Location: *
(37.9964°S, 90.1793°E)
Time: 18:37:31
(UTC+00:00)

Daily predictions for brighter satellites

Satellite Brightness Start Highest point End
(mag) Time Altitude Azimuth Time Altitude Azimuth Time Altitude Azimuth
SKYMED 3 4.5 12:02:54 10° NNE 12:07:04 86° ESE 12:11:19 10° SSW
Cosmos 1833 Rocket 4.2 12:06:10 10° NE 12:09:13 15° E 12:12:17 10° ESE
CZ-2D R/B 4.4 12:07:42 10° S 12:11:15 45° WSW 12:14:44 10° NNW
USA 215 4.2 12:06:15 10° E 12:11:55 32° SSE 12:17:35 10° SSW
CORIOLIS 4.1 12:09:58 10° SSE 12:15:23 68° ENE 12:20:43 10° N
Cosmos 1709 Rocket 4.0 12:12:30 10° N 12:18:52 73° E 12:25:18 10° S
Cosmos 1733 Rocket 4.3 12:15:29 10° SSW 12:19:46 47° W 12:24:01 10° NNW
ADEOS Rocket 4.3 12:16:24 10° SE 12:21:08 19° E 12:25:31 10° NE
NOSS 3-1 (A) 4.0 12:16:07 10° SW 12:21:57 52° WNW 12:26:48 10° NNE
Cosmos 1441 Rocket 4.2 12:19:32 10° SSW 12:23:05 49° W 12:26:37 10° N
Okean 1-7 3.3 12:22:03 10° NNW 12:26:23 74° W 12:30:48 10° S
USA 229 DEB 3.5 12:21:44 10° SSW 12:28:12 59° SE 12:34:08 10° NE
USA 229 3.5 12:21:51 10° SSW 12:28:19 58° SE 12:34:14 10° NE
Helios 1B rocket 2.2 12:26:43 10° SSE 12:30:41 69° ENE 12:34:35 10° N
Cosmos 2181 Rocket 4.4 12:28:15 10° S 12:34:03 39° ESE 12:39:45 10° NE
Meteor 1-31 Rocket 2.6 12:31:13 10° SSE 12:34:57 70° ENE 12:38:39 10° N
Cosmos 2251 Rocket 4.4 12:30:39 10° NNE 12:35:02 27° E 12:39:30 10° SE
Cosmos 1315 Rocket 3.5 12:32:09 10° NNE 12:35:41 32° E 12:39:18 10° SSE
ASTRO E2 3.8 12:32:55 10° WNW 12:36:01 27° N 12:38:04 16° NE
SeaSat 1 2.4 12:34:42 10° SSE 12:39:42 84° ENE 12:44:38 10° NNW
DELTA 2 DEB (DPAF) 4.0 12:37:09 10° NNE 12:41:22 66° ESE 12:45:40 10° S
SAR-Lupe-2 3.6 12:38:30 10° SSE 12:42:05 55° E 12:45:37 10° N
Okean 2 4.3 12:40:46 10° NNW 12:44:40 51° W 12:48:39 10° S
Cosmos 1697 Rocket 4.3 12:42:06 10° SSE 12:45:22 15° SE 12:45:39 15° SE
CZ-2C R/B 3.1 12:42:11 10° S 12:45:44 60° WSW 12:49:17 10° NNW
Cosmos 44 3.4 12:43:03 10° SSW 12:47:43 52° ESE 12:51:10 19° NE
Meteor 1-24 Rocket 4.5 12:48:14 10° NNE 12:53:16 30° E 12:58:12 10° SSE
Cosmos 482 Debris 4.3 12:55:02 10° WNW 12:56:31 29° SW 12:56:31 29° SW
Cosmos 1782 Rocket 3.4 12:53:26 10° S 12:57:49 67° E 13:02:09 10° NNE
Cosmos 2074 Rocket 4.1 12:52:47 10° NNE 12:58:44 50° E 13:04:44 10° SSE
SEDSat Delta rocket 4.0 12:55:33 10° NW 12:59:08 30° N 13:00:17 26° NE
ISS -3.5 12:56:53 10° NNW 13:00:09 47° NE 13:00:17 47° NE
CZ-4C R/B 4.2 13:02:04 28° SE 13:02:04 28° SE 13:04:24 10° S
Cosmos 1346 Rocket 3.2 12:57:12 10° SSW 13:01:08 64° W 13:04:59 10° N
Cosmos 2285 Rocket 4.3 12:57:28 10° NNW 13:03:53 72° WSW 13:10:24 10° SSE
Nadezhda 3 Rocket 4.3 13:12:48 10° S 13:18:43 40° ESE 13:19:14 40° E
Delta 2 Rocket 3.3 13:19:20 10° WNW 13:23:05 62° N 13:23:05 62° N
CZ-4B R/B 3.5 13:18:09 10° SSE 13:23:30 67° ENE 13:28:40 10° N
IGS 5A 3.5 13:20:46 10° S 13:24:56 75° WSW 13:29:02 10° NNW
Cosmos 1300 Rocket 3.6 13:20:49 10° S 13:25:11 75° W 13:29:11 12° N
Cosmos 1140 Rocket 3.9 13:22:30 10° NNW 13:27:37 61° WSW 13:32:47 10° S
Cosmos 2242 Rocket 4.2 13:24:58 10° NNW 13:29:26 60° W 13:34:01 10° S
Cosmos 2098 Rocket 4.0 13:24:12 10° S 13:30:57 84° E 13:37:35 10° N
Cosmos 1656 3.6 13:27:08 10° SSW 13:32:55 87° ESE 13:35:00 41° NNE
Cosmos 1455 4.2 13:33:38 10° SSW 13:36:40 26° W 13:39:41 10° NNW
Lacrosse 5 3.3 13:32:39 10° SSW 13:36:06 25° SSE 13:36:06 25° SSE
Cosmos 407 Rocket 3.6 13:33:06 10° NNW 13:38:15 74° WSW 13:43:26 10° SSE
Cosmos 1833 Rocket 2.9 13:46:50 10° NNW 13:52:27 67° WSW 13:55:55 24° SSE
USA 215 3.2 13:53:02 60° NE 13:54:23 86° NW 14:01:02 10° SW
ADEOS Rocket 3.5 14:00:15 10° S 14:07:16 66° WSW 14:13:30 10° NNW
Cosmos 1980 Rocket 4.2 14:13:21 10° S 14:14:55 18° S 14:14:55 18° S
Cosmos 1697 Rocket 4.0 14:24:19 10° SSW 14:27:24 34° SSW 14:27:24 34° SSW
CZ-4C R/B 4.5 20:26:25 28° SE 20:26:25 28° SE 20:29:28 10° SE
CENTAUR R/B 3.8 20:53:00 44° SE 20:53:00 44° SE 20:57:36 10° SE
SL-16 R/B 4.0 20:54:27 10° SSE 20:58:27 32° ESE 20:58:27 32° ESE
ARIANE 5 R/B 3.6 21:36:01 10° NE 21:40:51 41° ESE 21:45:39 10° S
ARGOS 4.4 21:36:15 10° NE 21:41:10 38° ESE 21:46:10 10° S
Timation 2 Rocket 4.0 21:50:59 65° SSE 21:50:59 65° SSE 21:56:05 10° SSE
Lacrosse 5 rocket 3.5 21:52:49 24° ENE 21:52:49 24° ENE 21:54:39 10° NE
DELTA 2 R/B (1) 3.9 21:53:16 61° E 21:53:16 61° E 21:57:53 10° ESE
Cosmos 1655 Rocket 3.9 21:47:09 10° S 21:53:36 84° E 21:59:53 10° N
NOSS 3-2 (A) 4.1 21:58:48 62° W 22:00:07 69° SW 22:08:09 10° SSE
Cosmos 1844 Rocket 4.1 22:05:45 26° SSW 22:05:45 26° SSW 22:08:31 10° S
CZ-4C R/B 4.0 22:11:32 29° SW 22:11:32 29° SW 22:17:09 10° SSE
SeaSat 1 3.6 22:06:31 10° NE 22:11:07 41° ESE 22:15:47 10° S
Cosmos 1174 4.3 22:12:55 70° E 22:12:55 70° E 22:17:50 10° NE
IRS-1C 4.0 22:18:37 10° N 22:23:57 70° WNW 22:29:21 10° SSW
SL-08 RB Rocket 3.9 22:21:23 10° NNE 22:25:54 69° ESE 22:30:26 10° S
Meteor 1-11 Rocket 4.3 22:31:49 38° SW 22:31:49 38° SW 22:36:06 10° S
SL-19 R/B 4.0 22:29:10 10° NNE 22:34:25 79° WNW 22:39:55 10° SSW
Cosmos 1975 2.8 22:35:17 32° N 22:37:04 81° E 22:41:06 10° S
GEOS 3 Rocket 3.6 22:34:38 10° SE 22:39:56 87° ENE 22:43:13 24° NNW
Cosmos 1400 Rocket 4.1 22:37:21 10° S 22:40:59 38° ESE 22:44:33 10° NNE
CENTAUR R/B 3.7 22:40:11 29° WSW 22:41:24 30° SW 22:47:28 10° SSE
SL-16 R/B 3.2 22:38:13 10° S 22:43:32 32° WSW 22:43:32 32° WSW
Cosmos 1340 3.0 22:42:05 10° N 22:45:28 57° E 22:48:57 10° SSE
Cosmos 1666 Rocket 3.4 22:41:53 12° N 22:46:00 78° W 22:50:25 10° S
CZ-2D R/B 4.0 22:42:36 10° NNE 22:46:12 51° ESE 22:49:52 10° S
Milstar 3 Cent rocket 4.4 22:40:02 13° NW 22:47:17 29° N 22:52:37 10° ENE
Cosmos 1833 Rocket 3.9 22:42:05 10° S 22:47:29 42° ESE 22:52:49 10° NE
IRS-P3 4.2 22:42:47 10° N 22:48:00 53° W 22:53:19 10° SSW
Cosmos 2228 Rocket 3.0 22:46:13 10° S 22:50:51 74° W 22:55:22 10° N
Cosmos 1707 Rocket 3.5 22:47:10 10° S 22:51:39 86° W 22:56:02 10° N
SJ-6F 4.3 22:47:54 10° NNE 22:51:57 88° ESE 22:56:05 10° SSW
SL-14 R/B 3.1 22:52:09 10° S 22:56:04 89° W 22:59:58 10° N
SL-8 R/B 3.7 23:00:17 25° SW 23:03:06 81° SSE 23:07:55 10° ENE
Cosmos 2278 Rocket 2.9 22:59:04 10° N 23:04:34 55° ENE 23:10:08 10° SSE
Cosmos 1553 Rocket 4.0 23:00:06 10° NNW 23:06:05 57° W 23:12:08 10° S
SL-08 R/B 4.4 23:02:03 10° SSW 23:08:17 71° W 23:14:30 10° N
NOSS 3-2 (C) 4.4 23:05:15 15° WNW 23:12:35 51° SW 23:20:18 10° SSE
Helios 1B rocket 4.3 23:09:14 10° NE 23:12:45 32° ESE 23:16:19 10° S
SJ-11-01 4.4 23:09:31 10° N 23:14:09 53° W 23:18:51 10° SSW
Okean 3 3.4 23:14:16 10° S 23:18:33 74° W 23:22:47 10° N
BREEZE-M DEB (TANK) 3.6 23:17:27 24° W 23:19:02 37° SW 23:21:26 10° SE
ARIANE 5 R/B 3.6 23:16:06 10° NW 23:20:00 22° W 23:23:55 10° SW
Cosmos 192 4.3 23:15:23 10° NNW 23:20:17 65° WSW 23:25:16 10° SSE
CZ-2C R/B 4.0 23:17:30 10° NE 23:20:54 40° ESE 23:24:19 10° S
ARGOS 4.1 23:17:05 10° NNW 23:21:28 25° W 23:25:54 10° SW
Aureole 2 3.9 23:19:24 10° NNW 23:22:19 89° WSW 23:25:16 10° SSE
[s.n.70599] 3.7 23:22:12 20° SW 23:23:23 31° S 23:25:43 10° ESE
Cosmos 1633 Rocket 3.7 23:20:29 10° NW 23:24:31 34° WSW 23:28:37 10° SSW
Cosmos 1356 Rocket 3.4 23:23:01 10° S 23:27:17 89° W 23:31:25 10° N
Lacrosse 5 rocket 3.1 23:27:50 15° WNW 23:28:19 15° WNW 23:30:53 10° NNW
Spot 4 Rocket 4.3 23:26:17 10° N 23:31:11 45° W 23:36:10 10° SSW
CORIOLIS 4.2 23:31:06 10° NNE 23:36:34 86° WNW 23:42:04 10° SSW
OAO 3 Rocket 4.3 23:33:09 10° NW 23:37:31 38° NNE 23:41:50 10° E
DELTA 2 R/B (1) 3.7 23:34:01 14° W 23:38:50 75° S 23:44:25 10° E
Cosmos 1470 2.9 23:35:19 10° N 23:39:06 75° E 23:42:55 10° S
SL-24 DEB 4.2 23:35:53 10° N 23:40:30 71° W 23:45:10 10° S
SJ-7 4.4 23:38:04 10° N 23:41:54 53° W 23:45:48 10° SSW
PSLV R/B 4.3 23:42:45 10° NNW 23:46:21 28° W 23:50:00 10° SW
YAOGAN 11 4.0 23:42:19 10° S 23:46:41 72° WSW 23:51:01 10° NNW
Cosmos 1703 Rocket 3.6 23:42:45 10° S 23:47:16 84° W 23:51:40 10° N
SeaSat 1 3.5 23:44:43 10° NNW 23:48:38 24° WNW 23:52:37 10° SW
COSMO-SKYMED 1 3.5 23:46:51 10° SSE 23:51:12 55° E 23:55:29 10° N
